Location: Coupvray
(48.8929°N, 2.7967°E)
Time: 09:52:44
(UTC+00:00)

Altair 2 - Pass Details

Date: 25 January 2021
Orbit: 837 x 949 km, 90.2° (Epoch: 26 February)

Event Time Altitude Azimuth Distance (km) Brightness Sun altitude
Rises 04:23:49 0° 13° (NNE) 3,466 11.1 -30.0°
Reaches altitude 10° 04:27:03 10° 32° (NNE) 2,544 10.6 -29.5°
Maximum altitude 04:30:54 18° 75° (ENE) 2,034 10.4 -28.9°
Drops below altitude 10° 04:34:49 10° 118° (ESE) 2,584 10.9 -28.2°
Sets 04:38:06 0° 136° (SE) 3,542 11.5 -27.7°
